| time (UTC) | temp C | wind direction | speed KPH | gust KPH | rain 1hr cm | rain 24hr cm | rain mn cm | humidity % | barometer mb |
| 20260506050328 | 13 | 302 | 0.0 | 0.0 | 0.00 | 0.00 | 0.00 | 85 | 1010.8 |
| 20260506044823 | 13 | 327 | 0.0 | 0.0 | 0.00 | 0.00 | 0.00 | 85 | 1010.7 |
| 20260506043322 | 13 | 297 | 0.0 | 0.0 | 0.00 | 0.00 | 0.00 | 85 | 1010.6 |
| 20260506041837 | 14 | 355 | 0.0 | 0.0 | 0.00 | 0.00 | 0.00 | 85 | 1010.4 |
| 20260506040333 | 15 | 318 | 0.0 | 0.0 | 0.00 | 0.00 | 0.00 | 85 | 1010.3 |
| 20260506034830 | 15 | 293 | 0.0 | 0.0 | 0.00 | 0.00 | 0.00 | 86 | 1010.2 |
| 20260506033328 | 15 | 313 | 0.0 | 0.0 | 0.00 | 0.00 | 0.00 | 86 | 1010.1 |
| 20260506031823 | 15 | 316 | 0.0 | 0.0 | 0.00 | 0.00 | 0.00 | 86 | 1009.7 |
| 20260506030338 | 15 | 344 | 0.0 | 0.0 | 0.00 | 0.00 | 0.00 | 86 | 1009.4 |
| 20260506024827 | 16 | 329 | 0.0 | 0.0 | 0.00 | 0.00 | 0.00 | 86 | 1009.2 |
| 20260506023337 | 16 | 290 | 0.0 | 0.0 | 0.00 | 0.00 | 0.00 | 85 | 1008.9 |
| 20260506021823 | 17 | 321 | 0.0 | 0.0 | 0.00 | 0.00 | 0.00 | 85 | 1008.7 |
| 20260506020335 | 18 | 360 | 0.0 | 0.0 | 0.00 | 0.00 | 0.00 | 84 | 1008.3 |
| 20260506014848 | 20 | 316 | 0.0 | 0.0 | 0.00 | 0.00 | 0.00 | 84 | 1008.0 |
| 20260506013341 | 20 | 310 | 0.0 | 0.0 | 0.00 | 0.00 | 0.00 | 83 | 1007.7 |
| 20260506011855 | 21 | 348 | 0.0 | 0.0 | 0.00 | 0.00 | 0.00 | 84 | 1007.0 |
| 20260506010319 | 21 | 326 | 0.0 | 0.0 | 0.00 | 0.00 | 0.00 | 83 | 1006.7 |
| 20260506004823 | 21 | 325 | 0.0 | 0.0 | 0.00 | 0.00 | 0.00 | 81 | 1006.8 |
| 20260506003326 | 22 | 306 | 0.0 | 0.0 | 0.00 | 0.00 | 0.00 | 81 | 1007.0 |
| 20260506001824 | 23 | 286 | 0.0 | 0.0 | 0.00 | 0.00 | 0.00 | 78 | 1006.2 |
| 20260506000322 | 24 | 261 | 0.0 | 0.0 | 0.00 | 0.00 | 0.00 | 75 | 1006.1 |
| 20260505234831 | 25 | 309 | 0.0 | 0.0 | 0.00 | 0.00 | 0.00 | 72 | 1005.9 |
| 20260505233359 | 26 | 286 | 0.0 | 0.0 | 0.00 | 0.00 | 0.00 | 69 | 1005.8 |
| 20260505231850 | 26 | 300 | 0.0 | 0.0 | 0.00 | 0.00 | 0.00 | 70 | 1005.5 |
| 20260505230321 | 28 | 286 | 0.0 | 0.0 | 0.00 | 0.00 | 0.00 | 65 | 1005.2 |
| 20260505224832 | 28 | 172 | 0.0 | 0.0 | 0.00 | 0.00 | 0.00 | 75 | 1004.9 |
| 20260505223325 | 29 | 171 | 0.0 | 0.0 | 0.00 | 0.00 | 0.00 | 75 | 1004.6 |
| 20260505163319 | 24 | 167 | 0.0 | 1.6 | 0.00 | 0.00 | 0.00 | 83 | 1005.9 |
| 20260505161833 | 25 | 158 | 0.0 | 12.9 | 0.00 | 0.00 | 0.00 | 84 | 1005.6 |
| 20260505160322 | 24 | 173 | 0.0 | 9.7 | 0.00 | 0.00 | 0.00 | 84 | 1005.5 |
| 20260505153337 | 23 | 157 | 1.6 | 11.3 | 0.00 | 0.00 | 0.00 | 85 | 1005.5 |
| 20260505151842 | 23 | 175 | 0.0 | 19.3 | 0.00 | 0.00 | 0.00 | 86 | 1005.5 |
| 20260505150357 | 23 | 159 | 0.0 | 1.6 | 0.00 | 0.00 | 0.00 | 86 | 1005.6 |
| 20260505140419 | 22 | 164 | 0.0 | 19.3 | 0.00 | 0.00 | 0.00 | 89 | 1005.2 |